Wellsville, NY

9:37 PM EST on January 19, 2018 (GMT -0500)
Wellsville Municipal-Tarantine

Weather History for KELZ - May, 2014

Change the Weather History Date:

Friday, May 9, 2014

  Actual Average (KDSV) Record (KDSV)
Temperature  
Mean Temperature 73 °F -  
Max Temperature 82 °F 65 °F 93 °F (1979)
Min Temperature 64 °F 41 °F 22 °F (1977)
Cooling Degree Days 8    
Growing Degree Days 23 (Base 50)    
Moisture  
Dew Point 50 °F    
Average Humidity 47    
Maximum Humidity 68    
Minimum Humidity 25    
Precipitation  
Precipitation 0.00 in - - ()
Sea Level Pressure  
Sea Level Pressure 29.95 in    
Wind  
Wind Speed 9 mph (SW)    
Max Wind Speed 17 mph    
Max Gust Speed 28 mph    
Visibility 10 miles    
Events Rain    
Averages and records for this station are not official NWS values.
T = Trace of Precipitation, MM = Missing Value Source: NWS Daily Summary

Daily Weather History Graph

Daily Weather History Graph

Search for Another Location

Airport or City:

Trip Planner

Search our weather history database for the weather conditions in past years. The results will help you decide how hot, cold, wet, or windy it might be!

Date:

Astronomy

May. 09, 2014 Rise Set
Actual Time 5:57 AM EDT 8:19 PM EDT
Civil Twilight 5:26 AM EDT 8:51 PM EDT
Nautical Twilight 4:47 AM EDT 9:30 PM EDT
Astronomical Twilight 4:04 AM EDT 10:13 PM EDT
Moon 3:09 PM EDT (5/9) 3:04 AM EDT (5/9)
Length of Visible Light 15h 24m
Length of Day
14h 22m
Waxing Gibbous, 73% of the Moon is Illuminated
May 9
Waxing Gibbous
May 14
Full
May 21
Last Quarter
May 28
New
Jun 5
First Quarter

Hourly Weather History & Observations

Time (EDT) Temp. Dew Point Humidity Pressure Visibility Wind Dir Wind Speed Gust Speed Precip Events Conditions
1:56 AM 64.9 °F 53.1 °F 65% 30.02 in 10.0 mi SSW 3.5 mph - N/A   Clear
2:56 AM 69.1 °F 53.1 °F 57% 30.01 in 10.0 mi SW 8.1 mph - N/A   Mostly Cloudy
3:56 AM 69.1 °F 53.1 °F 57% 30.01 in 10.0 mi SW 9.2 mph - N/A   Partly Cloudy
4:56 AM 66.9 °F 53.1 °F 61% 30.01 in 10.0 mi SW 4.6 mph - N/A   Clear
5:56 AM 68.0 °F 53.1 °F 59% 30.01 in 10.0 mi WSW 10.4 mph - N/A   Clear
6:56 AM 66.9 °F 53.1 °F 61% 30.02 in 10.0 mi SW 6.9 mph - N/A   Clear
7:56 AM 70.0 °F 53.1 °F 55% 30.03 in 10.0 mi SW 9.2 mph - N/A   Clear
8:56 AM 71.1 °F 52.0 °F 51% 30.03 in 10.0 mi SSW 8.1 mph - N/A   Clear
9:56 AM 75.0 °F 51.1 °F 43% 30.02 in 10.0 mi SW 8.1 mph 17.3 mph N/A   Clear
10:56 AM 78.1 °F 48.9 °F 36% 30.01 in 10.0 mi SW 9.2 mph - N/A   Clear
11:56 AM 80.1 °F 46.9 °F 31% 29.99 in 10.0 mi SW 13.8 mph 25.3 mph N/A   Clear
12:56 PM 82.0 °F 43.0 °F 25% 29.96 in 10.0 mi SW 10.4 mph 27.6 mph N/A   Clear
1:56 PM 81.0 °F 44.1 °F 27% 29.94 in 10.0 mi WSW 17.3 mph 24.2 mph N/A   Clear
2:56 PM 80.1 °F 46.0 °F 30% 29.91 in 10.0 mi SW 11.5 mph 20.7 mph N/A   Scattered Clouds
3:56 PM 80.1 °F 45.0 °F 29% 29.90 in 10.0 mi SSW 15.0 mph 24.2 mph N/A   Partly Cloudy
4:56 PM 80.1 °F 44.1 °F 28% 29.88 in 10.0 mi SW 12.7 mph 27.6 mph N/A   Clear
5:56 PM 79.0 °F 46.0 °F 31% 29.86 in 10.0 mi SSW 10.4 mph 19.6 mph N/A   Clear
6:56 PM 75.0 °F 48.9 °F 40% 29.86 in 10.0 mi NW 17.3 mph 23.0 mph N/A   Overcast
7:56 PM 71.1 °F 51.1 °F 49% 29.87 in 10.0 mi South 3.5 mph - N/A   Scattered Clouds
8:56 PM 71.1 °F 54.0 °F 55% 29.87 in 10.0 mi South 12.7 mph 25.3 mph N/A   Scattered Clouds
9:56 PM 70.0 °F 55.0 °F 59% 29.85 in 10.0 mi South 13.8 mph 21.9 mph N/A   Clear
10:56 PM 69.1 °F 55.0 °F 61% 29.85 in 10.0 mi South 12.7 mph 26.5 mph N/A   Overcast
11:56 PM 66.9 °F 55.9 °F 68% 29.86 in 10.0 mi SW 10.4 mph - 0.00 in Rain Light Rain